Starlink 32961

operational
NORAD ID: 63122 Int'l Des: 2025-039 Owner: SPXS Country: US Constellation: starlink
LEOCIRCULAR

Über Starlink 32961

Beschreibung wird geladen...

Live-Position

3D-Globus wird geladen...

Nächste Überflüge

Höhenverlauf

Altitude vs Time

uPlot chart will show altitude changes over time

Zweizeiliger Elementsatz

1 63122U 25039U 25351.68017902 .00018563 00000-0 68253-3 0 9992
2 63122 42.9974 115.9985 0000862 161.0390 199.0494 15.27573660 45529
Epoch: 17. Dez. 2025 • Age: 17 hours

Aktueller Status

Höhe 484.8 km
Geschwindigkeit 7.62 km/s
Subsatellitenpunkt -8.28°S, 127.23°W
Startdatum 27. Feb. 2025
Alter 0.8 years
Typ internet

Technische Details

Klassifizierung Payload
Masse 730.00 kg
Trockenmasse 700.00 kg
Gesamtmasse 730.00 kg
Länge 0.30 m
Durchmesser 4.10 m
Spannweite 29.00 m
Form Box + pan
Hersteller SPXS
Bus-Typ Starlink V2M
Phasenstatus In Orbit
Besitzer/Staat SPXS/US

Große Konstellationen

Loading constellations...